EW0401 Weather Reports


time (UTC)temp
C
wind
direction
speed
KPH
gust
KPH
rain 1hr
cm
rain 24hr
cm
rain mn
cm
humidity
%
barometer
mb
20260509101603 23 0 0.0 0.0 0.00 0.25 0.00 91 1010.3
20260509094559 23 0 0.0 0.0 0.00 0.25 0.00 91 1010.0
20260509093054 23 0 0.0 0.0 0.00 0.25 0.00 91 1009.9
20260509091557 23 0 0.0 0.0 0.00 0.25 0.00 91 1009.7
20260509090057 23 0 0.0 0.0 0.00 0.25 0.00 91 1009.7
20260509084554 23 0 0.0 0.0 0.00 0.25 0.00 91 1010.1
20260509083101 23 0 0.0 0.0 0.00 0.25 0.00 91 1010.2
20260509081556 23 0 0.0 0.0 0.00 0.25 0.00 91 1010.1
20260509080059 23 0 0.0 0.0 0.00 0.25 0.00 91 1010.2
20260509074608 23 0 0.0 0.0 0.00 0.25 0.00 91 1010.5
20260509073054 23 0 0.0 0.0 0.00 0.25 0.00 91 1010.7
20260509071607 23 0 0.0 0.0 0.00 0.25 0.00 91 1010.5
20260509070100 23 0 0.0 0.0 0.00 0.25 0.00 91 1010.4
20260509064601 23 0 0.0 0.0 0.00 0.25 0.00 91 1010.4
20260509063058 23 0 0.0 0.0 0.00 0.25 0.00 91 1010.6
20260509061601 23 0 0.0 0.0 0.00 0.25 0.00 91 1010.7
20260509054610 23 0 0.0 0.0 0.00 0.25 0.00 90 1011.0
20260509053053 23 0 0.0 1.6 0.00 0.25 0.00 91 1010.8
20260509051603 23 0 0.0 3.2 0.00 0.25 0.00 91 1011.1
20260509050056 23 0 0.0 0.0 0.00 0.25 0.00 90 1011.1
20260509044552 23 0 0.0 0.0 0.00 0.25 0.25 90 1011.4
20260509043100 23 0 0.0 3.2 0.00 0.25 0.25 90 1011.2
20260509041554 23 0 0.0 0.0 0.00 0.25 0.25 90 1011.0
20260509040055 23 0 0.0 4.8 0.00 0.25 0.25 90 1010.6
20260509034555 23 0 0.0 3.2 0.00 0.25 0.25 90 1010.9
20260509033056 23 0 0.0 3.2 0.00 0.25 0.25 90 1010.7
20260509031617 22 0 0.0 4.8 0.00 0.25 0.25 90 1010.6
20260509030057 22 0 0.0 0.0 0.00 0.25 0.25 90 1010.6
20260509024552 22 0 0.0 0.0 0.00 0.25 0.25 89 1010.5
20260509023056 22 0 0.0 0.0 0.00 0.25 0.25 89 1010.6
20260509021554 22 0 0.0 3.2 0.00 0.25 0.25 89 1010.6
20260509020053 22 0 0.0 3.2 0.00 0.25 0.25 89 1010.1
20260509014550 22 0 0.0 3.2 0.00 0.25 0.25 89 1010.0
20260509013049 22 0 0.0 0.0 0.00 0.25 0.25 89 1010.0
20260509011553 22 0 0.0 0.0 0.00 0.25 0.25 89 1010.1
20260509010050 22 0 0.0 3.2 0.00 0.25 0.25 89 1009.7
20260509004555 23 0 0.0 0.0 0.00 0.25 0.25 89 1009.9
20260509003055 23 0 0.0 3.2 0.00 0.25 0.25 89 1009.6
20260509001554 23 0 0.0 1.6 0.00 0.25 0.25 89 1009.7
20260509000105 23 0 0.0 0.0 0.00 0.25 0.25 89 1010.0
20260508234603 23 0 0.0 3.2 0.00 0.25 0.25 88 1010.5
20260508233058 23 0 0.0 3.2 0.00 0.25 0.25 88 1010.2
20260508231553 23 42 0.0 3.2 0.00 0.25 0.25 88 1009.9
20260508224556 23 0 0.0 3.2 0.00 0.25 0.25 89 1009.9
20260508223054 23 0 0.0 3.2 0.00 0.25 0.25 89 1010.1
20260508221558 22 0 0.0 3.2 0.00 0.25 0.25 89 1010.0
20260508220055 22 0 0.0 0.0 0.00 0.25 0.25 89 1010.2
20260508214607 22 0 0.0 1.6 0.00 0.25 0.25 89 1010.4
20260508213115 22 0 0.0 3.2 0.00 0.25 0.25 89 1010.3
20260508211558 22 0 0.0 3.2 0.00 0.25 0.25 89 1010.4
20260508210058 22 0 0.0 4.8 0.00 0.25 0.25 89 1010.7
20260508204617 22 0 0.0 4.8 0.03 0.25 0.25 90 1010.2
20260508203059 22 0 0.0 4.8 0.03 0.25 0.25 90 1010.9
20260508201609 22 0 0.0 1.6 0.03 0.25 0.25 91 1011.2
20260508200121 21 0 0.0 3.2 0.03 0.25 0.25 90 1011.2
20260508194554 21 0 0.0 0.0 0.00 0.23 0.23 90 1011.2
20260508193057 21 0 0.0 0.0 0.00 0.23 0.23 90 1011.5
20260508191556 21 0 0.0 3.2 0.03 0.23 0.23 90 1011.5
20260508184556 20 0 0.0 3.2 0.03 0.23 0.23 91 1011.5
20260508183104 20 0 0.0 4.8 0.03 0.23 0.23 90 1012.0
20260508181616 19 0 0.0 3.2 0.03 0.20 0.20 90 1012.5
20260508180110 19 0 0.0 3.2 0.03 0.20 0.20 90 1012.7
20260508174607 19 0 0.0 6.4 0.03 0.20 0.20 90 1012.6
20260508173059 19 0 0.0 6.4 0.05 0.20 0.20 90 1012.7
20260508171555 18 49 0.0 4.8 0.03 0.18 0.18 90 1012.9
20260508170059 18 0 0.0 6.4 0.03 0.18 0.18 90 1013.1
20260508164616 18 0 0.0 3.2 0.03 0.18 0.18 90 1013.3
20260508163054 18 0 0.0 3.2 0.00 0.15 0.15 90 1013.7
20260508161600 18 0 0.0 3.2 0.00 0.15 0.15 90 1013.8
20260508160106 18 0 0.0 0.0 0.03 0.15 0.15 90 1013.9
20260508154556 18 0 0.0 4.8 0.03 0.18 0.15 89 1013.6
20260508153059 18 63 0.0 6.4 0.13 0.18 0.15 89 1013.7
20260508151553 18 0 1.6 9.7 0.15 0.18 0.15 89 1013.5
20260508150056 18 0 0.0 8.0 0.13 0.15 0.13 88 1014.0
20260508144558 18 0 0.0 6.4 0.13 0.15 0.13 88 1014.6
20260508143054 19 0 0.0 4.8 0.03 0.05 0.03 87 1014.6
20260508141607 19 28 0.0 4.8 0.00 0.03 0.00 86 1014.2
20260508140106 19 0 0.0 3.2 0.00 0.03 0.00 86 1014.0
20260508134551 19 0 0.0 3.2 0.00 0.03 0.00 86 1013.8
20260508133054 19 0 0.0 3.2 0.00 0.03 0.00 86 1013.5
20260508131558 19 0 0.0 3.2 0.00 0.03 0.00 86 1013.6
20260508130052 18 0 0.0 3.2 0.00 0.03 0.00 86 1013.5
20260508124556 18 38 0.0 3.2 0.00 0.03 0.00 86 1013.7
20260508123055 18 0 0.0 4.8 0.00 0.03 0.00 86 1013.4
20260508121604 18 38 0.0 6.4 0.00 0.03 0.00 86 1013.6
20260508120100 18 0 0.0 4.8 0.00 0.03 0.00 86 1013.8
20260508114557 18 38 0.0 4.8 0.00 0.03 0.00 86 1013.4
20260508113059 18 0 0.0 0.0 0.00 0.03 0.00 87 1013.7
20260508111601 18 0 0.0 6.4 0.00 0.03 0.00 87 1013.9
20260508104556 18 0 0.0 3.2 0.00 0.03 0.00 87 1013.0
20260508103123 18 0 0.0 3.2 0.00 0.03 0.00 87 1013.1